Location: Meanaryar
(48.4161°N, 4.7315°W)
Time: 07:52:18
(UTC+00:00)

Cosmos 1092 Rocket - Pass Details

Date: 22 January 2021
Orbit: 954 x 995 km, 83.0° (Epoch: 02 March)

Event Time Altitude Azimuth Distance (km) Brightness Sun altitude
Rises 05:53:48 0° 352° (N) 3,645 6.9 -20.5°
Reaches altitude 10° 05:56:19 10° 354° (N) 2,695 6.2 -20.1°
Maximum altitude 06:02:28 72° 79° (E) 1,008 4.2 -19.1°
Drops below altitude 10° 06:08:37 10° 164° (SSE) 2,691 6.6 -18.1°
Sets 06:11:07 0° 166° (SSE) 3,638 7.3 -17.7°
